Regional Weather Roundup
Issued by NWS

Home | Current Version | Previous Version | Text Only | Print | Product List | Glossary On
Versions: 1 2 3 4 5 6 7 8 9 10 11 12 13 14 15 16 17 18 19 20 21 22 23 24 25 26 27 28 29 30 31 32 33 34 35 36 37 38 39 40 41 42 43 44 45 46 47 48 49 50
000
ASUS46 KSEW 212110
RWRWA

WASHINGTON REGIONAL WEATHER ROUNDUP
NATIONAL WEATHER SERVICE SEATTLE WA
100 PM PST WED FEB 21 2018

NOTE:"FAIR" INDICATES FEW OR NO CLOUDS BELOW 12,000 FEET WITH NO
SIGNIFICANT WEATHER AND/OR OBSTRUCTIONS TO VISIBILITY.

WAZ507-509-555>559-212200-
SEATTLE, TACOMA, EVERETT, AND VICINITY

CITY           SKY/WX    TMP DP  RH WIND       PRES   REMARKS
EVERETT        CLOUDY    32  19  58 CALM      30.27F
BOEING FIELD   CLOUDY    34  22  61 S7        30.31F
RENTON         CLOUDY    35  20  54 SE5       30.30F
SEATAC AIRPORT CLOUDY    33  22  63 S7        30.28F
JBLM-MCCHORD   CLOUDY    32  26  78 W3        30.30F
PUYALLUP       CLOUDY    34  25  69 VRB3      30.29R
BREMERTON      PTSUNNY   32  22  66 SW6       30.28F
JBLM-FT LEWIS  CLOUDY    32  29  90 CALM      30.29F
TACOMA NARROWS CLOUDY    32  22  66 VRB6      30.30S
$$

WAZ001-503-506-510-514-515-212200-
NORTH INTERIOR

CITY           SKY/WX    TMP DP  RH WIND       PRES   REMARKS
BELLINGHAM     CLOUDY    34  15  46 S6        30.28F
FRIDAY HARBOR  CLOUDY    35  19  52 SW6       30.28F
EASTSOUND      CLOUDY    34  23  64 S8        30.27F
PORT ANGELES   LGT SNOW  33  23  66 CALM      30.27F
EDIZ HOOK      LGT RAIN  33  22  64 CALM      30.29F
PORT TOWNSEND  FAIR      36  19  51 E6        30.29F
NAS WHIDBEY    CLOUDY    37  21  52 SE8       30.33F
ARLINGTON      CLOUDY    32  18  56 CALM      30.31F
BURLINGTON     PTSUNNY   32  18  55 SE3       30.30F
$$

WAZ020-022-039-040-504-511-512-212200-
SOUTHWEST INTERIOR

CITY           SKY/WX    TMP DP  RH WIND       PRES   REMARKS
SHELTON        CLOUDY    31  25  78 SW3       30.28F
OLYMPIA        CLOUDY    31  27  85 VRB3      30.31S
CHEHALIS       CLOUDY    34  28  80 S8        30.31F
KELSO          PTSUNNY   34  26  72 CALM      30.34F
VANCOUVER      FAIR      34  25  69 NW3       30.32F
SCAPPOOSE, OR  FAIR      35  24  64 NW5       30.32F
PORTLAND, OR   PTSUNNY   35  26  69 W6        30.32F
$$

WAZ021-516-517-212200-
WASHINGTON COAST

CITY           SKY/WX    TMP DP  RH WIND       PRES   REMARKS
FORKS          LGT SNOW  32  29  88 VRB3      30.27F VSB 3/4
HOQUIAM        PTSUNNY   35  26  69 CALM      30.30F
ASTORIA, OR    FAIR      37  29  72 SE5       30.30F
$$

WAZ019-023-024-040-567>569-212200-
CASCADE MOUNTAINS AND COLUMBIA GORGE

CITY           SKY/WX    TMP DP  RH WIND       PRES   REMARKS
STAMPEDE PASS  PTSUNNY   20  14  77 CALM      30.05F
TROUTDALE, OR  FAIR      35  21  56 E13       30.31F WCI  26
HOOD RIVER, OR FAIR      32  19  59 CALM      30.32F
THE DALLES, OR FAIR      31  16  54 NE5       30.35F
$$

WAZ026-027-041>044-520-521-212200-
EAST SLOPES

CITY           SKY/WX    TMP DP  RH WIND       PRES   REMARKS
OMAK           CLOUDY    21  10  62 S8        30.26F
WENATCHEE      CLOUDY    22  10  60 SW3       30.24F
ELLENSBURG     CLOUDY    27  11  51 VRB3      30.20F
YAKIMA         FAIR      31  17  56 S3        30.26F
SUNNYSIDE ARPT FAIR      29  11  47 S8        30.30F
YAKIMA TC      FAIR      29  13  53 SW6       30.21F
$$

WAZ028-034-035-212200-
COLUMBIA BASIN

CITY           SKY/WX    TMP DP  RH WIND       PRES   REMARKS
EPHRATA        FAIR      27   7  42 S9        30.24F
MOSES LAKE     FAIR      28  10  46 S9        30.26F
PASCO          FAIR      31  10  41 S5        30.32F
RICHLAND ARPT  FAIR      33  12  41 E3        30.32F
HERMISTON, OR  FAIR      30  14  51 CALM      30.30F
$$

WAZ036>038-212200-
NORTHEAST WASHINGTON

CITY           SKY/WX    TMP DP  RH WIND       PRES   REMARKS
SPOKANE GEIGER PTSUNNY   22   7  52 CALM      30.18F
SPOKANE FELTS  FAIR      23   9  55 CALM      30.22F
FAIRCHILD AFB  MOSUNNY   19   8  62 NE3       30.17F
COEURDALENE,ID FAIR      32  12  43 NW3       30.19F
DEER PARK      FAIR      18   8  65 SW3       30.21F
$$

WAZ029>033-212200-
SOUTHEAST WASHINGTON

CITY           SKY/WX    TMP DP  RH WIND       PRES   REMARKS
PULLMAN        FAIR      22  20  92 S6        30.18F
LEWISTON, ID   CLOUDY    31  16  54 VRB3      30.23F
WALLA WALLA    FAIR      29  17  61 W7        30.25F
PENDLETON, OR  FAIR      25  18  74 SW5       30.24F
$$



USA.gov is the U.S. government's official web portal to all federal, state and local government web resources and services.